Pontiac, MI

6:58 AM EST on January 19, 2018 (GMT -0500)
Oakland County International

Weather History for KPTK - October, 2012

Change the Weather History Date:

Friday, October 12, 2012

  Actual Average Record
Temperature  
Mean Temperature 42 °F -  
Max Temperature 52 °F 59 °F 78 °F (2008)
Min Temperature 32 °F 40 °F 30 °F (2006)
Degree Days  
Heating Degree Days 22    
Moisture  
Dew Point 31 °F    
Average Humidity 70    
Maximum Humidity 89    
Minimum Humidity 34    
Precipitation  
Precipitation 0.01 in - - ()
Sea Level Pressure  
Sea Level Pressure 30.34 in    
Wind  
Wind Speed 7 mph (NNW)    
Max Wind Speed 12 mph    
Max Gust Speed 16 mph    
Visibility 10 miles    
Events Rain    
Averages and records for this station are not official NWS values.
T = Trace of Precipitation, MM = Missing Value Source: NWS Daily Summary

Daily Weather History Graph

Daily Weather History Graph

Search for Another Location

Airport or City:

Trip Planner

Search our weather history database for the weather conditions in past years. The results will help you decide how hot, cold, wet, or windy it might be!

Date:

Astronomy

Oct. 12, 2012 Rise Set
Actual Time 7:43 AM EDT 6:55 PM EDT
Civil Twilight 7:15 AM EDT 7:23 PM EDT
Nautical Twilight 6:42 AM EDT 7:56 PM EDT
Astronomical Twilight 6:10 AM EDT 8:29 PM EDT
Moon 4:21 AM EDT (10/12) 5:07 PM EDT (10/12)
Length of Visible Light 12h 08m
Length of Day
11h 11m
Waning Crescent, 11% of the Moon is Illuminated
Oct 12
Waning Crescent
Oct 15
New
Oct 21
First Quarter
Oct 29
Full
Nov 6
Last Quarter

Hourly Weather History & Observations

Time (EDT) Temp. Windchill Dew Point Humidity Pressure Visibility Wind Dir Wind Speed Gust Speed Precip Events Conditions
12:43 AM 41.0 °F 34.3 °F 37.4 °F 87% 30.19 in 10.0 mi NW 11.5 mph - 0.00 in Rain Light Rain
12:50 AM 41.0 °F 36.4 °F 37.4 °F 87% 30.19 in 10.0 mi NW 6.9 mph - 0.00 in Rain Light Rain
12:53 AM 41.0 °F 35.2 °F 36.0 °F 82% 30.20 in 10.0 mi NW 9.2 mph - 0.00 in Rain Light Rain
1:03 AM 39.2 °F 33.6 °F 35.6 °F 87% 30.19 in 10.0 mi NW 8.1 mph - 0.00 in Rain Light Rain
1:53 AM 39.2 °F 33.6 °F 35.6 °F 87% 30.20 in 10.0 mi West 8.1 mph - N/A   Overcast
2:53 AM 39.9 °F 35.1 °F 36.0 °F 86% 30.22 in 10.0 mi West 6.9 mph - N/A   Overcast
3:53 AM 39.2 °F 32.5 °F 35.6 °F 87% 30.22 in 10.0 mi WNW 10.4 mph - N/A   Scattered Clouds
4:53 AM 37.9 °F 33.5 °F 35.1 °F 89% 30.25 in 10.0 mi NW 5.8 mph - N/A   Clear
5:53 AM 37.0 °F 31.0 °F 33.1 °F 86% 30.29 in 10.0 mi NW 8.1 mph - N/A   Scattered Clouds
6:53 AM 36.0 °F 29.6 °F 32.0 °F 86% 30.32 in 10.0 mi NW 8.1 mph - N/A   Scattered Clouds
7:53 AM 35.1 °F 28.6 °F 30.9 °F 85% 30.35 in 10.0 mi NW 8.1 mph - N/A   Partly Cloudy
8:53 AM 36.0 °F 30.3 °F 32.0 °F 86% 30.39 in 10.0 mi NNW 6.9 mph - N/A   Partly Cloudy
9:53 AM 39.2 °F 32.5 °F 33.8 °F 81% 30.39 in 10.0 mi NNW 10.4 mph - N/A   Mostly Cloudy
10:53 AM 43.0 °F 37.7 °F 33.1 °F 68% 30.43 in 10.0 mi North 9.2 mph - N/A   Mostly Cloudy
11:53 AM 45.0 °F 40.6 °F 30.9 °F 58% 30.45 in 10.0 mi ENE 8.1 mph - N/A   Scattered Clouds
12:53 PM 46.4 °F 42.4 °F 28.4 °F 50% 30.42 in 10.0 mi NE 8.1 mph - N/A   Mostly Cloudy
1:53 PM 48.9 °F - 26.1 °F 41% 30.43 in 10.0 mi North 9.2 mph 16.1 mph N/A   Scattered Clouds
2:53 PM 50.0 °F - 25.0 °F 38% 30.42 in 10.0 mi NW 5.8 mph - 0.01 in   Scattered Clouds
3:53 PM 48.0 °F - 25.0 °F 41% 30.41 in 10.0 mi Calm Calm - N/A   Scattered Clouds
4:53 PM 50.0 °F - 23.0 °F 35% 30.40 in 10.0 mi Calm Calm - N/A   Partly Cloudy
5:53 PM 48.2 °F - 21.2 °F 34% 30.38 in 10.0 mi Calm Calm - N/A   Partly Cloudy
6:53 PM 46.9 °F - 27.0 °F 46% 30.40 in 10.0 mi SE 4.6 mph - N/A   Clear
7:53 PM 42.1 °F - 28.9 °F 60% 30.41 in 10.0 mi Calm Calm - N/A   Clear
8:53 PM 39.0 °F - 30.0 °F 70% 30.42 in 10.0 mi Calm Calm - N/A   Clear
9:53 PM 37.4 °F - 30.2 °F 75% 30.39 in 10.0 mi Calm Calm - N/A   Clear
10:53 PM 36.0 °F - 30.0 °F 79% 30.42 in 10.0 mi Calm Calm - N/A   Clear
11:53 PM 32.0 °F 28.7 °F 28.9 °F 88% 30.42 in 10.0 mi ENE 3.5 mph - N/A   Clear